DMSP 5D-2 F13 DEB, 42267

Orbit data source: Space-Track

DMSP 5D-2 F13 DEB, 42267 is space debris in SSO originally from a launch on Fri, 24 Mar 1995 UTC launched from the Air Force Western Test Range (AFWTR). Debris objects in space refer to the collection of defunct objects orbiting the Earth. Examples of debris include non-operational satellites, rocket bodies, and fragments generated from explosions, collisions, or faulty payload assembly.

Loading next visibility...
Identifier
42267, 1995-015GH
Orbit
SSO
Country
Flag of USUS
Related business
Manufacturer
Unknown
Mission
Spacecraft
Bus & Motor
Unknown
Mass
Unknown
Launch date (UTC)
1995-03-24 (31 years ago)
Launch vehicle
Unknown
Launch site
Air Force Western Test Range (AFWTR)
Object type
Payload
Rocket body
Debris
Shape & HBR
Unknown shape, 0.1 m
Radar Cross Section
Medium (>0.1 m² and <1 m²)

Expand to show TLE details & history
Last TLE update: 21 hours ago

TLE from 21 hours ago
0 DMSP 5D-2 F13 DEB
1 42267U 95015GH  26235.62697219  .00003640  00000-0  16545-2 0  9997
2 42267  98.7333 121.3500 0082544  13.8201 346.5209 14.20583758580450
Epoch: 2026-08-23T15:02Z
TLE epoch observation values (Epoch: 2026-08-23T15:02:50.397Z)
Latitude
0.00004°
Longitude
-76.28031°
Altitude
768.503 km
Speed
7.5 km/s
True Right ascension
08h 05m 23s
True Declination
0° 00' 00"
Sunlit
Object was in daylight at epoch
Visualization orbit readout
Latitude
Unknown
Longitude
Unknown
Altitude
Unknown
Speed
Unknown
Apparent Right ascension
Unknown
Apparent Declination
Unknown
Sunlit
N/A
Visualization observer readout
Local Sidereal Time
03:25:04
Azimuth
Unknown
Elevation
Unknown
Doppler factor
Unknown
Orbital elements
Apogee altitude
879.959 km
Perigee altitude
761.117 km
Semi-major axis
7,198.675 km
Eccentricity
0.00825
Inclination
98.7333°
RAAN
121.35°
Arg. of periapsis
13.8201°
True anomaly
346.29819°
Mean anomaly
346.5209°
Eccentric anomaly
346.40977°
Mean motion
3.55357 °/min
Orbital period
101.31 mins
BSTAR
0.0016545
Loading maneuver chart data...
Computing Atmospheric mass density...

Documentation

Showing up to 5 results
|